Los Angeles Downtown, CA

5:26 AM PDT on May 27, 2018 (GMT -0700)
Los Angeles Downtown

Weather History for KCQT - December, 2013

Change the Weather History Date:

Friday, December 27, 2013

  Actual Average Record
Temperature  
Mean Temperature 67 °F 57 °F  
Max Temperature 85 °F 68 °F 85 °F (2013)
Min Temperature 49 °F 47 °F 36 °F (1916)
Degree Days  
Heating Degree Days 0 8  
Month to date heating degree days 180 205  
Since 1 July heating degree days 261 336  
Cooling Degree Days 2 0  
Month to date cooling degree days 16 0  
Year to date cooling degree days 1225 1240  
Growing Degree Days 16 (Base 50)    
Moisture  
Dew Point 21 °F    
Average Humidity 25    
Maximum Humidity 42    
Minimum Humidity 8    
Precipitation  
Precipitation 0.00 in 0.10 in 1.81 in (1936)
Month to date precipitation 0.20 1.92  
Year to date precipitation 3.60 14.52  
Since 1 July precipitation 0.97  
Sea Level Pressure  
Sea Level Pressure 30.09 in    
Wind  
Wind Speed 1 mph (NNW)    
Max Wind Speed 8 mph    
Max Gust Speed 12 mph    
Visibility 10 miles    
Events      
T = Trace of Precipitation, MM = Missing Value Source: NWS Daily Summary

Daily Weather History Graph

Daily Weather History Graph

Search for Another Location

Airport or City:

Astronomy

Dec. 27, 2013 Rise Set
Actual Time 6:57 AM PST 4:51 PM PST
Civil Twilight 6:29 AM PST 5:19 PM PST
Nautical Twilight 5:58 AM PST 5:50 PM PST
Astronomical Twilight 5:27 AM PST 6:20 PM PST
Moon 1:42 AM PST 12:57 PM PST
Length of Visible Light 10h 49m
Length of Day
9h 54m
Waning Crescent, 27% of the Moon is Illuminated
Dec 27
Waning Crescent
Jan 1
New
Jan 7
First Quarter
Jan 15
Full
Jan 23
Last Quarter

Hourly Weather History & Observations

Time (PST) Temp. Dew Point Humidity Pressure Visibility Wind Dir Wind Speed Gust Speed Precip Events Conditions
12:47 AM 50.0 °F 28.0 °F 43% 30.13 in 10.0 mi Calm Calm - N/A   Clear
1:47 AM 52.0 °F 23.0 °F 32% 30.13 in 10.0 mi Calm Calm - N/A   Clear
2:47 AM 50.0 °F 26.1 °F 39% 30.14 in 10.0 mi Calm Calm - N/A   Clear
3:47 AM 52.0 °F 18.0 °F 26% 30.12 in 10.0 mi North 3.5 mph - N/A   Clear
4:47 AM 53.1 °F 17.1 °F 24% 30.12 in 10.0 mi Calm Calm - N/A   Clear
5:47 AM 54.0 °F 15.1 °F 22% 30.12 in 10.0 mi Calm Calm - N/A   Clear
6:47 AM 54.0 °F 14.0 °F 21% 30.12 in 10.0 mi NNE 3.5 mph - N/A   Clear
7:47 AM 55.9 °F 16.0 °F 21% 30.14 in 10.0 mi Calm Calm - N/A   Clear
8:47 AM 62.1 °F 18.0 °F 18% 30.14 in 10.0 mi Variable 3.5 mph - N/A   Clear
9:47 AM 70.0 °F 16.0 °F 13% 30.15 in 10.0 mi Calm Calm - N/A   Clear
10:47 AM 75.9 °F 10.0 °F 8% 30.12 in 10.0 mi Calm Calm - N/A   Clear
11:47 AM 79.0 °F 16.0 °F 9% 30.08 in 10.0 mi Calm Calm - N/A   Clear
12:47 PM 82.0 °F 19.0 °F 10% 30.06 in 10.0 mi Calm Calm - N/A   Clear
1:47 PM 80.1 °F 21.9 °F 12% 30.05 in 10.0 mi West 8.1 mph - N/A   Clear
2:47 PM 75.9 °F 15.1 °F 10% 30.04 in 10.0 mi West 4.6 mph - N/A   Clear
3:47 PM 73.0 °F 16.0 °F 11% 30.03 in 10.0 mi Calm Calm - N/A   Clear
4:47 PM 70.0 °F 17.1 °F 13% 30.03 in 10.0 mi Calm Calm - N/A   Clear
5:47 PM 64.0 °F 21.0 °F 19% 30.04 in 10.0 mi Calm Calm - N/A   Clear
6:47 PM 60.1 °F 25.0 °F 26% 30.06 in 10.0 mi Calm Calm - N/A   Clear
7:47 PM 60.1 °F 30.0 °F 32% 30.06 in 10.0 mi Calm Calm - N/A   Clear
8:47 PM 64.0 °F 21.9 °F 20% 30.05 in 10.0 mi East 3.5 mph - N/A   Clear
9:47 PM 57.9 °F 34.0 °F 41% 30.06 in 10.0 mi Calm Calm - N/A   Clear
10:47 PM 57.0 °F 30.0 °F 36% 30.06 in 10.0 mi Calm Calm - N/A   Clear
11:47 PM 57.0 °F 27.0 °F 32% 30.04 in 10.0 mi Calm Calm - N/A   Clear